Time,TemperatureF,DewpointF,PressureIn,WindDirection,WindDirectionDegrees,WindSpeedMPH,WindSpeedGustMPH,Humidity,HourlyPrecipIn,Conditions,Clouds,dailyrainin,SoftwareType,DateUTC
2013-03-24 00:13:00,32.6,22.0,29.82,WNW,300,2.0,-999.0,65,-99.99,,,0.00,weatherlink.com 1.10,2013-03-24 04:13:00,
2013-03-24 00:28:00,32.7,22.0,29.82,West,264,0.0,-999.0,64,-99.99,,,0.00,weatherlink.com 1.10,2013-03-24 04:28:00,
2013-03-24 00:43:00,32.6,22.0,29.82,WNW,296,2.0,-999.0,65,-99.99,,,0.00,weatherlink.com 1.10,2013-03-24 04:43:00,
2013-03-24 00:58:00,32.4,23.0,29.81,NW,321,0.0,-999.0,67,-99.99,,,0.00,weatherlink.com 1.10,2013-03-24 04:58:00,
2013-03-24 01:13:00,32.2,23.0,29.81,NW,324,0.0,-999.0,68,-99.99,,,0.00,weatherlink.com 1.10,2013-03-24 05:13:00,
2013-03-24 01:28:00,31.9,23.0,29.82,North,10,0.0,-999.0,70,-99.99,,,0.00,weatherlink.com 1.10,2013-03-24 05:28:00,
2013-03-24 01:43:00,31.7,23.0,29.82,NW,306,0.0,-999.0,71,-99.99,,,0.00,weatherlink.com 1.10,2013-03-24 05:43:00,
2013-03-24 01:58:00,31.7,23.0,29.82,North,10,0.0,-999.0,71,-99.99,,,0.00,weatherlink.com 1.10,2013-03-24 05:58:00,
2013-03-24 02:13:00,31.9,23.0,29.82,WNW,293,3.0,-999.0,70,-99.99,,,0.00,weatherlink.com 1.10,2013-03-24 06:13:00,
2013-03-24 02:28:00,31.9,23.0,29.82,WNW,294,3.0,-999.0,69,-99.99,,,0.00,weatherlink.com 1.10,2013-03-24 06:28:00,
2013-03-24 02:43:00,31.9,23.0,29.82,WNW,284,0.0,-999.0,69,-99.99,,,0.00,weatherlink.com 1.10,2013-03-24 06:43:00,
2013-03-24 02:58:00,31.9,23.0,29.82,WNW,288,4.0,-999.0,69,-99.99,,,0.00,weatherlink.com 1.10,2013-03-24 06:58:00,
2013-03-24 03:13:00,31.9,23.0,29.81,WNW,301,2.0,-999.0,69,-99.99,,,0.00,weatherlink.com 1.10,2013-03-24 07:13:00,
2013-03-24 03:28:00,31.8,22.0,29.81,NE,52,6.0,-999.0,68,-99.99,,,0.00,weatherlink.com 1.10,2013-03-24 07:28:00,
2013-03-24 03:43:00,31.8,22.0,29.81,North,10,2.0,-999.0,68,-99.99,,,0.00,weatherlink.com 1.10,2013-03-24 07:43:00,
2013-03-24 03:58:00,31.7,22.0,29.80,WNW,296,4.0,-999.0,68,-99.99,,,0.00,weatherlink.com 1.10,2013-03-24 07:58:00,
2013-03-24 04:13:00,31.6,22.0,29.80,WNW,284,2.0,-999.0,69,-99.99,,,0.00,weatherlink.com 1.10,2013-03-24 08:13:00,
2013-03-24 04:28:00,31.6,22.0,29.80,West,266,4.0,-999.0,69,-99.99,,,0.00,weatherlink.com 1.10,2013-03-24 08:28:00,
2013-03-24 04:43:00,31.4,22.0,29.81,NW,305,1.0,-999.0,69,-99.99,,,0.00,weatherlink.com 1.10,2013-03-24 08:43:00,
2013-03-24 04:58:00,31.3,23.0,29.81,NW,317,0.0,-999.0,70,-99.99,,,0.00,weatherlink.com 1.10,2013-03-24 08:58:00,
2013-03-24 05:13:00,31.3,23.0,29.81,WNW,287,0.0,-999.0,70,-99.99,,,0.00,weatherlink.com 1.10,2013-03-24 09:13:00,
2013-03-24 05:28:00,31.2,22.0,29.80,NNE,15,4.0,-999.0,70,-99.99,,,0.00,weatherlink.com 1.10,2013-03-24 09:28:00,
2013-03-24 05:43:00,31.2,22.0,29.80,NNW,348,3.0,-999.0,70,-99.99,,,0.00,weatherlink.com 1.10,2013-03-24 09:43:00,
2013-03-24 05:58:00,31.3,23.0,29.81,NW,325,0.0,-999.0,70,-99.99,,,0.00,weatherlink.com 1.10,2013-03-24 09:58:00,
2013-03-24 06:13:00,31.3,23.0,29.81,NE,49,5.0,-999.0,70,-99.99,,,0.00,weatherlink.com 1.10,2013-03-24 10:13:00,
2013-03-24 06:28:00,31.2,22.0,29.83,WNW,297,2.0,-999.0,70,-99.99,,,0.00,weatherlink.com 1.10,2013-03-24 10:28:00,
2013-03-24 06:43:00,31.2,23.0,29.82,North,353,7.0,-999.0,71,-99.99,,,0.00,weatherlink.com 1.10,2013-03-24 10:43:00,
2013-03-24 06:58:00,31.0,23.0,29.83,NW,310,0.0,-999.0,72,-99.99,,,0.00,weatherlink.com 1.10,2013-03-24 10:58:00,
2013-03-24 07:13:00,31.1,23.0,29.86,South,190,4.0,-999.0,72,-99.99,,,0.00,weatherlink.com 1.10,2013-03-24 11:13:00,
2013-03-24 07:28:00,31.2,23.0,29.87,North,357,1.0,-999.0,72,-99.99,,,0.00,weatherlink.com 1.10,2013-03-24 11:28:00,
2013-03-24 07:43:00,31.4,23.0,29.88,NW,325,0.0,-999.0,72,-99.99,,,0.00,weatherlink.com 1.10,2013-03-24 11:43:00,
2013-03-24 07:58:00,31.5,23.0,29.87,North,357,5.0,-999.0,71,-99.99,,,0.00,weatherlink.com 1.10,2013-03-24 11:58:00,
2013-03-24 08:13:00,31.7,23.0,29.88,West,279,2.0,-999.0,71,-99.99,,,0.00,weatherlink.com 1.10,2013-03-24 12:13:00,
2013-03-24 08:28:00,31.9,23.0,29.86,North,354,3.0,-999.0,71,-99.99,,,0.00,weatherlink.com 1.10,2013-03-24 12:28:00,
2013-03-24 08:59:00,32.4,24.0,29.87,NE,49,4.0,-999.0,70,-99.99,,,0.00,weatherlink.com 1.10,2013-03-24 12:59:00,
2013-03-24 09:14:00,32.4,23.0,29.87,NNW,346,15.0,-999.0,69,-99.99,,,0.00,weatherlink.com 1.10,2013-03-24 13:14:00,
2013-03-24 09:29:00,32.5,24.0,29.87,NW,323,5.0,-999.0,70,-99.99,,,0.00,weatherlink.com 1.10,2013-03-24 13:29:00,
2013-03-24 09:44:00,32.7,24.0,29.87,NNE,24,11.0,-999.0,70,-99.99,,,0.00,weatherlink.com 1.10,2013-03-24 13:44:00,
2013-03-24 09:59:00,32.8,24.0,29.88,NW,318,3.0,-999.0,70,-99.99,,,0.00,weatherlink.com 1.10,2013-03-24 13:59:00,
2013-03-24 10:14:00,32.7,24.0,29.87,NW,310,4.0,-999.0,70,-99.99,,,0.00,weatherlink.com 1.10,2013-03-24 14:14:00,
2013-03-24 10:29:00,32.7,24.0,29.87,NNW,329,5.0,-999.0,70,-99.99,,,0.00,weatherlink.com 1.10,2013-03-24 14:29:00,
2013-03-24 10:44:00,32.9,24.0,29.87,NW,311,9.0,-999.0,70,-99.99,,,0.00,weatherlink.com 1.10,2013-03-24 14:44:00,
2013-03-24 10:59:00,33.4,24.0,29.86,NNW,342,9.0,-999.0,68,-99.99,,,0.00,weatherlink.com 1.10,2013-03-24 14:59:00,
2013-03-24 11:14:00,33.6,23.0,29.87,NE,51,5.0,-999.0,66,-99.99,,,0.00,weatherlink.com 1.10,2013-03-24 15:14:00,
2013-03-24 11:29:00,34.1,23.0,29.86,North,10,11.0,-999.0,65,-99.99,,,0.00,weatherlink.com 1.10,2013-03-24 15:29:00,
2013-03-24 11:44:00,34.3,23.0,29.87,North,360,6.0,-999.0,63,-99.99,,,0.00,weatherlink.com 1.10,2013-03-24 15:44:00,
2013-03-24 11:59:00,34.4,23.0,29.86,SSE,167,0.0,-999.0,63,-99.99,,,0.00,weatherlink.com 1.10,2013-03-24 15:59:00,
2013-03-24 12:14:00,34.4,22.0,29.87,NW,321,6.0,-999.0,62,-99.99,,,0.00,weatherlink.com 1.10,2013-03-24 16:14:00,
2013-03-24 12:29:00,34.5,23.0,29.87,ESE,102,10.0,-999.0,62,-99.99,,,0.00,weatherlink.com 1.10,2013-03-24 16:29:00,
2013-03-24 12:44:00,35.5,23.0,29.87,North,10,11.0,-999.0,60,-99.99,,,0.00,weatherlink.com 1.10,2013-03-24 16:44:00,
2013-03-24 12:59:00,35.8,23.0,29.86,NNE,15,5.0,-999.0,59,-99.99,,,0.00,weatherlink.com 1.10,2013-03-24 16:59:00,
2013-03-24 13:14:00,36.0,23.0,29.86,NE,51,5.0,-999.0,59,-99.99,,,0.00,weatherlink.com 1.10,2013-03-24 17:14:00,
2013-03-24 13:29:00,36.2,23.0,29.86,NNE,33,2.0,-999.0,58,-99.99,,,0.00,weatherlink.com 1.10,2013-03-24 17:29:00,
2013-03-24 13:44:00,36.7,23.0,29.85,NW,322,5.0,-999.0,59,-99.99,,,0.00,weatherlink.com 1.10,2013-03-24 17:44:00,
2013-03-24 13:59:00,36.3,23.0,29.84,NNE,20,7.0,-999.0,58,-99.99,,,0.00,weatherlink.com 1.10,2013-03-24 17:59:00,
2013-03-24 14:14:00,36.5,23.0,29.84,NNE,26,13.0,-999.0,58,-99.99,,,0.00,weatherlink.com 1.10,2013-03-24 18:14:00,
2013-03-24 14:29:00,37.5,23.0,29.84,NNW,336,3.0,-999.0,56,-99.99,,,0.00,weatherlink.com 1.10,2013-03-24 18:29:00,
2013-03-24 14:44:00,37.0,23.0,29.84,NNW,340,7.0,-999.0,57,-99.99,,,0.00,weatherlink.com 1.10,2013-03-24 18:44:00,
2013-03-24 14:59:00,36.8,23.0,29.84,NE,34,14.0,-999.0,57,-99.99,,,0.00,weatherlink.com 1.10,2013-03-24 18:59:00,
2013-03-24 15:14:00,37.1,23.0,29.84,NNE,25,2.0,-999.0,57,-99.99,,,0.00,weatherlink.com 1.10,2013-03-24 19:14:00,
2013-03-24 15:29:00,37.3,23.0,29.82,North,3,5.0,-999.0,57,-99.99,,,0.00,weatherlink.com 1.10,2013-03-24 19:29:00,
2013-03-24 15:44:00,37.1,23.0,29.82,NNW,343,5.0,-999.0,56,-99.99,,,0.00,weatherlink.com 1.10,2013-03-24 19:44:00,
2013-03-24 15:59:00,38.1,23.0,29.81,ENE,73,14.0,-999.0,54,-99.99,,,0.00,weatherlink.com 1.10,2013-03-24 19:59:00,
2013-03-24 16:14:00,37.3,23.0,29.81,NNE,20,4.0,-999.0,56,-99.99,,,0.00,weatherlink.com 1.10,2013-03-24 20:14:00,
2013-03-24 16:29:00,37.3,23.0,29.81,ENE,62,5.0,-999.0,56,-99.99,,,0.00,weatherlink.com 1.10,2013-03-24 20:29:00,
2013-03-24 16:44:00,37.3,23.0,29.80,NNE,26,7.0,-999.0,56,-99.99,,,0.00,weatherlink.com 1.10,2013-03-24 20:44:00,
2013-03-24 16:59:00,37.2,23.0,29.80,NNW,341,7.0,-999.0,57,-99.99,,,0.00,weatherlink.com 1.10,2013-03-24 20:59:00,
2013-03-24 17:14:00,37.2,23.0,29.81,NNW,343,2.0,-999.0,57,-99.99,,,0.00,weatherlink.com 1.10,2013-03-24 21:14:00,
2013-03-24 17:29:00,37.0,22.0,29.81,North,1,5.0,-999.0,55,-99.99,,,0.00,weatherlink.com 1.10,2013-03-24 21:29:00,
2013-03-24 17:44:00,36.8,22.0,29.80,NNW,341,4.0,-999.0,56,-99.99,,,0.00,weatherlink.com 1.10,2013-03-24 21:44:00,
2013-03-24 17:59:00,36.7,23.0,29.81,NNW,346,5.0,-999.0,57,-99.99,,,0.00,weatherlink.com 1.10,2013-03-24 21:59:00,
2013-03-24 18:15:00,36.5,22.0,29.81,North,354,3.0,-999.0,57,-99.99,,,0.00,weatherlink.com 1.10,2013-03-24 22:15:00,
2013-03-24 18:29:00,36.2,23.0,29.81,NW,321,3.0,-999.0,58,-99.99,,,0.00,weatherlink.com 1.10,2013-03-24 22:29:00,
2013-03-24 18:44:00,35.9,23.0,29.82,NNE,27,3.0,-999.0,59,-99.99,,,0.00,weatherlink.com 1.10,2013-03-24 22:44:00,
2013-03-24 19:00:00,35.4,23.0,29.82,NW,321,6.0,-999.0,60,-99.99,,,0.00,weatherlink.com 1.10,2013-03-24 23:00:00,
2013-03-24 19:15:00,35.1,23.0,29.83,NNE,15,8.0,-999.0,61,-99.99,,,0.00,weatherlink.com 1.10,2013-03-24 23:15:00,
2013-03-24 19:30:00,34.6,22.0,29.83,NNE,20,9.0,-999.0,61,-99.99,,,0.00,weatherlink.com 1.10,2013-03-24 23:30:00,
2013-03-24 19:45:00,34.2,22.0,29.83,NNE,15,4.0,-999.0,62,-99.99,,,0.00,weatherlink.com 1.10,2013-03-24 23:45:00,
2013-03-24 20:00:00,33.7,22.0,29.83,NW,326,7.0,-999.0,63,-99.99,,,0.00,weatherlink.com 1.10,2013-03-25 00:00:00,
2013-03-24 20:15:00,33.4,22.0,29.83,NNW,328,1.0,-999.0,64,-99.99,,,0.00,weatherlink.com 1.10,2013-03-25 00:15:00,
2013-03-24 20:30:00,33.2,22.0,29.84,NNW,346,3.0,-999.0,64,-99.99,,,0.00,weatherlink.com 1.10,2013-03-25 00:30:00,
2013-03-24 20:45:00,33.1,22.0,29.83,NNW,331,4.0,-999.0,64,-99.99,,,0.00,weatherlink.com 1.10,2013-03-25 00:45:00,
2013-03-24 21:00:00,32.9,22.0,29.83,NW,325,4.0,-999.0,64,-99.99,,,0.00,weatherlink.com 1.10,2013-03-25 01:00:00,
2013-03-24 21:15:00,32.5,22.0,29.84,NNW,348,3.0,-999.0,65,-99.99,,,0.00,weatherlink.com 1.10,2013-03-25 01:15:00,
2013-03-24 21:30:00,31.9,22.0,29.84,NNW,331,0.0,-999.0,66,-99.99,,,0.00,weatherlink.com 1.10,2013-03-25 01:30:00,
2013-03-24 21:45:00,31.7,22.0,29.84,North,353,3.0,-999.0,67,-99.99,,,0.00,weatherlink.com 1.10,2013-03-25 01:45:00,
2013-03-24 22:00:00,31.5,22.0,29.84,North,359,0.0,-999.0,67,-99.99,,,0.00,weatherlink.com 1.10,2013-03-25 02:00:00,
2013-03-24 22:15:00,30.2,22.0,29.83,NNE,15,0.0,-999.0,70,-99.99,,,0.00,weatherlink.com 1.10,2013-03-25 02:15:00,
2013-03-24 22:30:00,29.8,21.0,29.83,NNW,344,3.0,-999.0,71,-99.99,,,0.00,weatherlink.com 1.10,2013-03-25 02:30:00,
2013-03-24 22:45:00,29.9,22.0,29.83,NW,326,0.0,-999.0,71,-99.99,,,0.00,weatherlink.com 1.10,2013-03-25 02:45:00,
2013-03-24 23:00:00,29.3,21.0,29.82,NW,326,0.0,-999.0,71,-99.99,,,0.00,weatherlink.com 1.10,2013-03-25 03:00:00,
2013-03-24 23:15:00,28.8,21.0,29.82,NW,326,0.0,-999.0,72,-99.99,,,0.00,weatherlink.com 1.10,2013-03-25 03:15:00,
2013-03-24 23:30:00,28.1,20.0,29.82,NW,326,0.0,-999.0,73,-99.99,,,0.00,weatherlink.com 1.10,2013-03-25 03:30:00,
2013-03-24 23:45:00,27.7,21.0,29.83,NW,326,0.0,-999.0,75,-99.99,,,0.00,weatherlink.com 1.10,2013-03-25 03:45:00,